Powrót do katalogu

COSMOS 2148

AktywnyMilitariaPO
NORAD 21304·PAYLOAD·🇷🇺 Russia

Wystrzelony May 16, 1991 z Plesetsk Cosmodrome

Loading…

Następne Przeloty (najbliższe 24 godziny)

TLE

ŚwieżeSource: Space-Track

Epoka: Sep 14, 2026, 06:43 UTC

1 21304U 91033F   26257.28013454  .00000017  00000-0  31629-4 0  9998
2 21304  82.5733 212.7446 0024458 109.0366  55.4412 12.65996014632379

Śledź COSMOS 2148 w czasie rzeczywistym z AllMySat

Download on the App Store